Weather History for KUTS - April, 2013

Change the Weather History Date:

Wednesday, April 10, 2013

  Actual Average (KCXO) Record (KCXO)
Temperature  
Mean Temperature 60 °F -  
Max Temperature 75 °F 75 °F 89 °F (2011)
Min Temperature 44 °F 53 °F 34 °F (2003)
Degree Days  
Heating Degree Days 6    
Growing Degree Days 10 (Base 50)    
Moisture  
Dew Point 55 °F    
Average Humidity 88    
Maximum Humidity 100    
Minimum Humidity 78    
Precipitation  
Precipitation 0.04 in - - ()
Sea Level Pressure  
Sea Level Pressure 29.81 in    
Wind  
Wind Speed 9 mph (NW)    
Max Wind Speed 16 mph    
Max Gust Speed 26 mph    
Visibility 8 miles    
Events Rain    
Averages and records for this station are not official NWS values.
T = Trace of Precipitation, MM = Missing Value Source: NWS Daily Summary

Daily Weather History Graph

Daily Weather History Graph

Search for Another Location

Airport or City:

Trip Planner

Search our weather history database for the weather conditions in past years. The results will help you decide how hot, cold, wet, or windy it might be!

Date:

Astronomy

Apr. 10, 2013 Rise Set
Actual Time 7:00 AM CDT 7:47 PM CDT
Civil Twilight 6:35 AM CDT 8:11 PM CDT
Nautical Twilight 6:06 AM CDT 8:40 PM CDT
Astronomical Twilight 5:37 AM CDT 9:10 PM CDT
Moon 6:59 AM CDT (4/10) 8:19 PM CDT (4/10)
Length of Visible Light 13h 36m
Length of Day
12h 47m
New Moon, 0% of the Moon is Illuminated
Apr 10
New Moon
Apr 18
First Quarter
Apr 25
Full
May 2
Last Quarter
May 9
New

Hourly Weather History & Observations

Time (CDT) Temp. Windchill Dew Point Humidity Pressure Visibility Wind Dir Wind Speed Gust Speed Precip Events Conditions
12:53 AM 73.0 °F - 69.1 °F 87% 29.75 in 8.0 mi SSE 6.9 mph 18.4 mph N/A   Overcast
1:53 AM 73.0 °F - 68.0 °F 84% 29.76 in 9.0 mi South 11.5 mph 20.7 mph N/A   Overcast
2:53 AM 73.0 °F - 66.9 °F 81% 29.74 in 10.0 mi SSE 12.7 mph 20.7 mph N/A   Overcast
3:06 AM 73.4 °F - 66.2 °F 78% 29.74 in 10.0 mi SSE 9.2 mph 26.5 mph N/A   Overcast
3:53 AM 73.0 °F - 66.0 °F 79% 29.73 in 10.0 mi SSE 10.4 mph 20.7 mph N/A   Overcast
4:53 AM 73.0 °F - 66.9 °F 81% 29.70 in 10.0 mi SSE 9.2 mph - 0.01 in   Overcast
5:53 AM 73.9 °F - 66.9 °F 79% 29.70 in 10.0 mi SSE 11.5 mph 19.6 mph N/A   Overcast
6:53 AM 73.9 °F - 66.9 °F 79% 29.70 in 10.0 mi SSE 9.2 mph 23.0 mph N/A   Overcast
7:53 AM 73.9 °F - 68.0 °F 82% 29.76 in 9.0 mi South 9.2 mph - N/A   Overcast
8:53 AM 73.9 °F - 68.0 °F 82% 29.77 in 9.0 mi South 3.5 mph - N/A   Overcast
9:53 AM 75.0 °F - 68.0 °F 79% 29.77 in 9.0 mi Calm Calm - 0.01 in   Overcast
10:53 AM 75.9 °F - 69.1 °F 79% 29.77 in 8.0 mi South 4.6 mph - N/A   Overcast
11:50 AM 73.4 °F - 71.6 °F 94% 29.77 in 5.0 mi Variable 3.5 mph - 0.00 in Rain Light Rain
11:53 AM 73.9 °F - 71.1 °F 91% 29.75 in 4.0 mi Calm Calm - 0.00 in Rain Rain
12:32 PM 60.8 °F - 59.0 °F 94% 29.79 in 6.0 mi WNW 15.0 mph 26.5 mph 0.00 in Rain Light Rain
12:39 PM 57.2 °F - 55.4 °F 94% 29.78 in 6.0 mi NNW 15.0 mph 23.0 mph 0.00 in Rain Light Rain
12:53 PM 54.0 °F - 53.1 °F 97% 29.81 in 8.0 mi WNW 16.1 mph 24.2 mph 0.00 in Rain Light Rain
1:06 PM 51.8 °F - 51.8 °F 100% 29.82 in 6.0 mi WNW 16.1 mph 24.2 mph 0.01 in Rain Light Rain
1:53 PM 50.0 °F - 46.9 °F 89% 29.84 in 8.0 mi NW 13.8 mph 25.3 mph 0.01 in Rain Light Rain
2:53 PM 46.9 °F - 45.0 °F 93% 29.84 in 4.0 mi NW 11.5 mph 19.6 mph N/A Rain Rain
3:26 PM 46.4 °F 42.9 °F 44.6 °F 93% 29.85 in 3.0 mi North 6.9 mph - N/A Rain Heavy Rain
3:53 PM 46.9 °F - 46.0 °F 97% 29.83 in 6.0 mi NNW 10.4 mph - N/A Rain Light Rain
4:53 PM 48.0 °F - 46.9 °F 96% 29.82 in 8.0 mi North 8.1 mph - N/A Rain Light Rain
5:53 PM 48.0 °F - 46.0 °F 93% 29.82 in 8.0 mi NNW 12.7 mph 17.3 mph N/A Rain Light Rain
6:53 PM 48.0 °F - 46.0 °F 93% 29.84 in 10.0 mi NNW 10.4 mph - 0.00 in   Overcast
7:53 PM 46.9 °F - 45.0 °F 93% 29.85 in 10.0 mi NNW 8.1 mph 18.4 mph N/A   Overcast
8:53 PM 46.0 °F 39.9 °F 44.1 °F 93% 29.87 in 10.0 mi NNW 13.8 mph 20.7 mph N/A   Overcast
9:21 PM 46.4 °F 41.9 °F 42.8 °F 87% 29.89 in 10.0 mi NNW 9.2 mph 25.3 mph N/A   Overcast
9:53 PM 46.0 °F 41.0 °F 43.0 °F 89% 29.89 in 10.0 mi NNW 10.4 mph - 0.01 in   Overcast
10:08 PM 46.4 °F 41.1 °F 42.8 °F 87% 29.89 in 10.0 mi NNW 11.5 mph 21.9 mph N/A   Overcast
10:35 PM 44.6 °F 39.7 °F 42.8 °F 93% 29.90 in 10.0 mi NNW 9.2 mph - N/A   Overcast
10:53 PM 45.0 °F 39.7 °F 42.1 °F 90% 29.88 in 10.0 mi North 10.4 mph - N/A   Mostly Cloudy
11:25 PM 44.6 °F 39.2 °F 42.8 °F 93% 29.90 in 10.0 mi North 10.4 mph 18.4 mph N/A   Overcast
11:53 PM 45.0 °F 40.6 °F 41.0 °F 86% 29.90 in 10.0 mi North 8.1 mph 21.9 mph N/A   Overcast